This demonstration page uses our WeatherBlox Daily Observations layout. Learn more.

Hourly Observations for September 7, 2016

Temp ( °F °C ) Dew Point ( °F °C ) Humidity (%) Winds ( mph kmh ) Pressure ( in mb ) Visibility ( mi km ) Precip ( " mm )
12:15 am 00:15 Mostly Cloudy 65 18.5 62 16.8 90 90 E 3 6 29.94 1014 10 16.09344 0 0
12:35 am 00:35 Partly Cloudy with Nearby Thunderstorms 65 18.5 63 17 91 91 E 5 7 29.94 1014 10 16.09344 0 0
12:55 am 00:55 Mostly Cloudy with Rain 65 18.5 63 17.3 93 93 ESE 6 9 29.94 1014 7 11.265408 0.01 0.254
1:15 am 01:15 Cloudy with Rain 65 18.3 63 17.3 94 94 NNW 3 6 29.97 1015 5 8.04672 0.06 1.524
1:35 am 01:35 Cloudy with Light Rain 65 18.2 63 17.2 94 94 N 6 9 29.94 1014 5 8.04672 0.09 2.286
1:55 am 01:55 Mostly Cloudy with Light Rain 64 18 63 17.1 95 95 N 9 15 29.91 1013 5 8.04672 0.1 2.54
2:15 am 02:15 Clear 64 18 63 17 94 94 N 9 15 29.88 1012 7 11.265408 0 0
2:35 am 02:35 Clear 64 18 63 17 94 94 NE 8 13 29.91 1013 7 11.265408 0 0
2:55 am 02:55 Partly Cloudy 64 17.9 63 17 95 95 N 6 9 29.91 1013 7 11.265408 0 0
3:15 am 03:15 Clear 64 17.7 62 16.8 95 95 NNE 6 9 29.91 1013 7 11.265408 0 0
3:35 am 03:35 Partly Cloudy 64 17.5 62 16.6 95 95 Calm 29.91 1013 10 16.09344 0 0
3:55 am 03:55 Clear 63 17.2 61 16.3 94 94 Calm 29.91 1013 7 11.265408 0 0
4:15 am 04:15 Clear 63 17.1 61 16.3 95 95 Calm 29.91 1013 7 11.265408 0 0
4:35 am 04:35 Clear with Mist and Fog 63 17.1 61 16.3 95 95 Calm 29.88 1012 5 8.04672 0 0
4:55 am 04:55 Clear 63 17.1 62 16.5 96 96 Calm 29.88 1012 7 11.265408 0 0
5:15 am 05:15 Clear 63 17.2 62 16.5 96 96 Calm 29.91 1013 10 16.09344 0 0
5:35 am 05:35 Clear 63 17.2 62 16.5 96 96 Calm 29.91 1013 10 16.09344 0 0
5:55 am 05:55 Clear 63 17.2 62 16.5 96 96 Calm 29.91 1013 10 16.09344 0 0
6:15 am 06:15 Clear 63 17 61 16.1 94 94 E 3 6 29.91 1013 10 16.09344 0 0
6:35 am 06:35 Clear 63 17 61 16.1 94 94 NNE 5 7 29.91 1013 10 16.09344 0 0
6:55 am 06:55 Clear 63 17 61 16 94 94 Calm 29.91 1013 10 16.09344 0 0
7:15 am 07:15 Sunny 62 16.7 60 15.8 94 94 Calm 29.91 1013 10 16.09344 0 0
7:35 am 07:35 Partly Cloudy 63 17 61 16 94 94 ESE 3 6 29.91 1013 10 16.09344 0 0
7:55 am 07:55 Sunny 63 17.1 61 16.2 94 94 Calm 29.91 1013 10 16.09344 0 0
8:15 am 08:15 Sunny 64 17.5 62 16.5 94 94 E 6 9 29.91 1013 10 16.09344 0 0
8:35 am 08:35 Sunny 64 18 62 16.8 93 93 E 6 9 29.91 1013 10 16.09344 0 0
8:55 am 08:55 Sunny 65 18.5 63 17.1 92 92 E 8 13 29.91 1013 10 16.09344 0 0
9:15 am 09:15 Sunny 66 18.9 63 17.3 90 90 E 7 11 29.91 1013 10 16.09344 0 0
9:35 am 09:35 Sunny 68 20 64 17.8 87 87 E 7 11 29.88 1012 10 16.09344 0 0
9:55 am 09:55 Sunny 69 20.6 65 18.3 87 87 ESE 9 15 29.88 1012 10 16.09344 0 0
10:15 am 10:15 Sunny 69 20.8 65 18.2 85 85 ESE 9 15 29.88 1012 10 16.09344 0 0
10:35 am 10:35 Sunny 70 21.2 65 18.3 84 84 ESE 13 20 29.85 1011 10 16.09344 0 0
10:55 am 10:55 Partly Cloudy 71 21.9 66 18.8 83 83 SE 13 20 29.85 1011 10 16.09344 0 0
11:15 am 11:15 Mostly Cloudy 74 23.2 67 19.4 79 79 SE 9 15 29.83 1010 10 16.09344 0 0
11:35 am 11:35 Cloudy 74 23.4 66 19 76 76 SSE 14 22 29.83 1010 10 16.09344 0 0
11:55 am 11:55 Mostly Cloudy 74 23.5 66 19 76 76 SSE 10 17 29.83 1010 10 16.09344 0 0
12:15 pm 12:15 Mostly Cloudy 74 23.6 66 19.1 76 76 SSE 9 15 29.83 1010 10 16.09344 0 0
12:35 pm 12:35 Cloudy 75 23.7 66 19 75 75 S 9 15 29.83 1010 10 16.09344 0 0
12:55 pm 12:55 Cloudy 75 23.7 66 19.1 76 76 S 8 13 29.83 1010 10 16.09344 0 0
1:15 pm 13:15 Cloudy 75 23.7 66 19.1 76 76 SSW 9 15 29.83 1010 10 16.09344 0 0
1:35 pm 13:35 Cloudy 74 23.4 67 19.2 77 77 SSW 8 13 29.83 1010 10 16.09344 0 0
1:55 pm 13:55 Cloudy 74 23.1 67 19.5 80 80 SW 6 9 29.83 1010 10 16.09344 0 0
2:15 pm 14:15 Cloudy 76 24.2 66 19.1 73 73 SW 6 9 29.8 1009 10 16.09344 0 0
2:35 pm 14:35 Mostly Cloudy 77 24.9 67 19.3 71 71 W 5 7 29.8 1009 10 16.09344 0 0
2:55 pm 14:55 Mostly Cloudy 77 25.2 66 19 69 69 W 6 9 29.8 1009 10 16.09344 0 0
3:15 pm 15:15 Cloudy 77 25.2 66 18.9 68 68 SW 5 7 29.8 1009 10 16.09344 0 0
3:35 pm 15:35 Mostly Cloudy 77 25.2 65 18.5 66 66 Calm 29.8 1009 10 16.09344 0 0
3:55 pm 15:55 Mostly Cloudy 78 25.8 65 18.5 64 64 SW 5 7 29.8 1009 10 16.09344 0 0
4:15 pm 16:15 Mostly Cloudy 78 25.6 66 18.8 66 66 SW 5 7 29.8 1009 10 16.09344 0 0
4:35 pm 16:35 Cloudy 78 25.4 66 18.9 67 67 W 3 6 29.8 1009 10 16.09344 0 0
4:55 pm 16:55 Cloudy 78 25.6 66 19.1 67 67 WNW 6 9 29.8 1009 10 16.09344 0 0
5:35 pm 17:35 Mostly Cloudy 77 25 66 19.1 70 70 NW 3 6 29.8 1009 10 16.09344 0 0
5:55 pm 17:55 Mostly Cloudy 78 25.7 66 18.8 66 66 NW 5 7 29.8 1009 10 16.09344 0 0
6:15 pm 18:15 Partly Cloudy 79 26 66 18.7 64 64 WNW 6 9 29.77 1008 10 16.09344 0 0
6:35 pm 18:35 Partly Cloudy 77 25.2 66 18.8 68 68 NW 6 9 29.8 1009 10 16.09344 0 0
6:55 pm 18:55 Mostly Cloudy 76 24.3 66 19.1 73 73 NNW 3 6 29.8 1009 10 16.09344 0 0
7:15 pm 19:15 Mostly Cloudy 75 24 67 19.5 76 76 NW 3 6 29.8 1009 10 16.09344 0 0
7:35 pm 19:35 Cloudy 75 24 67 19.3 75 75 Calm 29.8 1009 10 16.09344 0 0
7:55 pm 19:55 Partly Cloudy 74 23.1 67 19.2 79 79 Calm 29.8 1009 10 16.09344 0 0
8:15 pm 20:15 Clear 72 22.4 66 19 81 81 Calm 29.8 1009 10 16.09344 0 0
8:35 pm 20:35 Clear 71 21.9 66 19 84 84 Calm 29.85 1011 10 16.09344 0 0
8:55 pm 20:55 Clear 71 21.4 66 19 86 86 Calm 29.85 1011 10 16.09344 0 0
9:15 pm 21:15 Clear 69 20.8 66 18.8 88 88 Calm 29.85 1011 10 16.09344 0 0
9:35 pm 21:35 Clear 69 20.8 65 18.6 87 87 Calm 29.85 1011 10 16.09344 0 0
9:55 pm 21:55 Clear 69 20.3 65 18.5 89 89 Calm 29.85 1011 10 16.09344 0 0
10:15 pm 22:15 Clear 68 20 65 18.2 89 89 NNW 5 7 29.85 1011 10 16.09344 0 0
10:35 pm 22:35 Clear 68 20 64 18 88 88 Calm 29.85 1011 10 16.09344 0 0
10:55 pm 22:55 Clear 67 19.5 64 17.9 91 91 Calm 29.85 1011 10 16.09344 0 0
11:15 pm 23:15 Clear 67 19.2 64 17.7 91 91 Calm 29.85 1011 10 16.09344 0 0
11:35 pm 23:35 Clear 66 19.1 64 17.8 92 92 Calm 29.85 1011 10 16.09344 0 0
11:55 pm 23:55 Clear 66 18.8 64 17.7 93 93 Calm 29.91 1013 10 16.09344 0 0

Powered by AerisWeather